Regional Weather Roundup
Issued by NWS Bismarck, ND

Home | Current Version | Previous Version | Text Only | Print | Product List | Glossary On
Versions: 1 2 3 4 5 6 7 8 9 10 11 12 13 14 15 16 17 18 19 20 21 22 23 24 25 26 27 28 29 30 31 32 33 34 35 36 37 38 39 40 41 42 43 44 45 46 47 48 49 50
000
ASUS43 KBIS 301320
RWRBIS

NWR BROADCAST TEXT
NATIONAL WEATHER SERVICE BISMARCK ND
800 AM CDT WED JUL 30 2014

NOTE: "FAIR" INDICATES FEW OR NO CLOUDS BELOW 12,000 FEET WITH NO
SIGNIFICANT WEATHER AND/OR OBSTRUCTIONS TO VISIBILITY.


CITY           SKY/WX    TMP DP  RH WIND       PRES   REMARKS
WILLISTON      SUNNY     56  53  90 NE3       30.19R
MINOT          SUNNY     59  57  93 CALM      30.16S
MINOT AFB      SUNNY     59  59 100 W5        30.16R
BISMARCK       SUNNY     60  57  89 NE3       30.18R
DICKINSON      SUNNY     56  55  97 CALM      30.18S
GARRISON         N/A     59  58  96 CALM      30.17S
HETTINGER ARPT SUNNY     52  50  93 CALM      30.19R FOG
JAMESTOWN      SUNNY     60  56  86 CALM      30.16S
CARRINGTON     FAIR      57  57 100 W5        30.18S
CROSBY           N/A     57  57 100 N3        30.21R
HARVEY         FAIR      63  63 100 CALM      30.17S
HAZEN          FAIR      57  55  94 CALM      30.18S
LINTON         FAIR      59  57  94 E7        30.17S
MANDAN         FAIR      59  57  94 E5        30.18S
RUGBY          FOG       59  59 100 CALM      30.16S VSB 1/4
STANLEY        FOG       55  55 100 CALM      30.19S VSB 1/4
TIOGA          FAIR      55  55 100 CALM      30.22F FOG
WATFORD CITY   CLOUDY    55  55 100 CALM      30.18S FOG
$$

CITY           SKY/WX    TMP DP  RH WIND       PRES   REMARKS
GRAND FORKS    MOSUNNY   60  56  86 CALM      30.12S
GRAND FORKS AF SUNNY     61  60  97 W5        30.14R
DEVILS LAKE    SUNNY     63  55  77 NW3       30.15S
FARGO          SUNNY     60  55  83 CALM      30.13S
CANDO          FAIR      59  57  94 CALM      30.16S
CAVALIER       FAIR      63  57  82 CALM      30.12S HAZE
GRAFTON        FAIR      59  55  88 W5        30.12S
GWINNER        SUNNY     61  59  94 W3        30.16S
LANGDON        FAIR      57  55  94 NW3       30.15S
ROLLA          FAIR      63  61  94 NW3       30.17S
WALHALLA         N/A    N/A N/A N/A W3          N/A
$$

CITY           SKY/WX    TMP DP  RH WIND       PRES   REMARKS
ABERDEEN       SUNNY     58  53  84 CALM      30.16S
MOBRIDGE       MOSUNNY   63  57  81 E6        30.14R
BUFFALO          N/A     56  51  84 NW6       30.14R
RAPID CITY     SUNNY     61  56  83 NW7       30.20S
GLASGOW        MOSUNNY   61  54  77 E7        30.18S
SIDNEY         SUNNY     61  55  82 CALM      30.21R
WOLF POINT     SUNNY     58  53  84 CALM      30.20S
GLENDIVE       SUNNY     63  52  67 NW3       30.22S
MILES CITY     SUNNY     61  47  59 CALM      30.21R
BAKER          SUNNY     55  51  86 CALM      30.23R
$$

CITY           SKY/WX    TMP DP  RH WIND       PRES   REMARKS
BILLINGS       PTCLDY    63  53  70 CALM      30.25R
GREAT FALLS    CLEAR     69  47  45 S9        30.17S
REGINA         SUNNY     59  55  88 SE6       30.20S
ESTEVAN        MOSUNNY   57  57 100 N3        30.20R
$$




USA.gov is the U.S. government's official web portal to all federal, state and local government web resources and services.